Date String (YYYY-MM-DD hh:mm:ss) UTC,Instrument flags,Ambient pressure (hPa),Sample flow (lpm),Bypass flow (lpm),Sample temperature (°C),Ambient temperature (°C),ASC tube jacket temperature (°C),LED temperature (°C),Box temperature (°C),Sample RH (%),Span deviation,Mass concentration (μg/m³),Mass concentration (μg/m³),Mass concentration (μg/m³)
DateTimeUTC,F1_M11,P_M11,Q1_M11,Q2_M11,T1_M11,T2_M11,T3_M11,T4_M11,T5_M11,U1_M11,ZSPAN_M11,X0_M11,X2_M11,X1_M11
2022-05-01 14:00:00,,0824.4,5.00,0.00,25.2,24.3,00.0,34.0,27.0,14.3,0000.0,0008.87,0004.38,0003.70
2022-05-01 14:01:00,,0824.4,4.99,0.00,25.2,24.3,00.0,34.1,27.0,14.4,0000.0,0008.52,0004.35,0003.70
2022-05-01 14:02:00,,0824.4,4.99,0.00,25.2,24.3,00.0,34.1,27.1,14.6,0000.0,0008.40,0004.32,0003.69
2022-05-01 14:03:00,,0824.3,5.01,0.00,25.2,24.3,00.0,34.1,27.1,14.7,0000.0,0008.47,0004.30,0003.69
2022-05-01 14:04:00,,0824.3,5.00,0.00,25.2,24.3,00.0,34.1,27.1,15.0,0000.0,0009.35,0004.36,0003.69
2022-05-01 14:05:00,,0824.3,4.99,0.00,25.2,24.3,00.0,34.1,27.1,14.6,0000.0,0010.35,0004.39,0003.68
2022-05-01 14:06:00,,0824.3,5.00,0.00,25.3,24.3,00.0,34.1,27.1,14.8,0000.0,0010.76,0004.42,0003.68
2022-05-01 14:07:00,,0824.3,5.01,0.00,25.3,24.3,00.0,34.1,27.1,14.8,0000.0,0011.79,0004.46,0003.69
2022-05-01 14:08:00,,0824.3,4.99,0.00,25.3,24.3,00.0,34.1,27.1,14.7,0000.0,0012.85,0004.48,0003.68
2022-05-01 14:09:00,,0824.3,5.00,0.00,25.3,24.3,00.0,34.1,27.1,14.4,0000.0,0014.12,0004.49,0003.68
2022-05-01 14:10:00,,0824.3,5.00,0.00,25.3,24.4,00.0,34.1,27.1,13.8,0000.0,0014.42,0004.48,0003.66
2022-05-01 14:11:00,,0824.3,5.01,0.00,25.3,24.4,00.0,34.2,27.2,13.5,0000.0,0014.92,0004.51,0003.66
2022-05-01 14:12:00,,0824.3,5.00,0.00,25.3,24.4,00.0,34.2,27.2,13.4,0000.0,0014.86,0004.53,0003.67
2022-05-01 14:13:00,,0824.3,5.00,0.00,25.3,24.4,00.0,34.2,27.2,13.5,0000.0,0014.64,0004.54,0003.67
2022-05-01 14:14:00,,0824.3,4.99,0.00,25.3,24.4,00.0,34.2,27.2,13.4,0000.0,0014.60,0004.54,0003.68
2022-05-01 14:15:00,,0824.2,4.99,0.00,25.3,24.4,00.0,34.2,27.2,13.5,0000.0,0013.84,0004.54,0003.68
2022-05-01 14:16:00,,0824.3,5.01,0.00,25.3,24.4,00.0,34.2,27.2,13.4,0000.0,0013.49,0004.57,0003.67
2022-05-01 14:17:00,,0824.3,5.01,0.00,25.3,24.4,00.0,34.2,27.2,13.2,0000.0,0013.87,0004.67,0003.68
2022-05-01 14:18:00,,0824.3,5.00,0.00,25.4,24.4,00.0,34.2,27.2,13.2,0000.0,0013.25,0004.74,0003.67
2022-05-01 14:19:00,,0824.3,5.00,0.00,25.4,24.4,00.0,34.2,27.2,13.4,0000.0,0012.78,0004.81,0003.67
2022-05-01 14:20:00,,0824.3,5.02,0.00,25.4,24.4,00.0,34.2,27.2,13.6,0000.0,0011.40,0004.84,0003.67
2022-05-01 14:21:00,,0824.3,4.99,0.00,25.4,24.4,00.0,34.3,27.2,13.7,0000.0,0012.10,0004.86,0003.68
2022-05-01 14:22:00,,0824.3,4.99,0.00,25.4,24.4,00.0,34.3,27.2,13.7,0000.0,0011.81,0004.84,0003.69
2022-05-01 14:23:00,,0824.3,5.01,0.00,25.4,24.4,00.0,34.3,27.2,13.9,0000.0,0011.75,0004.85,0003.69
2022-05-01 14:24:00,,0824.3,5.00,0.00,25.4,24.4,00.0,34.3,27.2,14.0,0000.0,0011.78,0004.87,0003.70
2022-05-01 14:25:00,,0824.3,5.00,0.00,25.4,24.4,00.0,34.3,27.3,14.0,0000.0,0011.79,0004.90,0003.70
2022-05-01 14:26:00,,0824.3,5.00,0.00,25.4,24.4,00.0,34.3,27.2,13.9,0000.0,0012.26,0004.93,0003.71
2022-05-01 14:27:00,,0824.3,5.02,0.00,25.4,24.4,00.0,34.3,27.2,13.9,0000.0,0012.15,0004.84,0003.73
2022-05-01 14:28:00,,0824.3,5.00,0.00,25.4,24.4,00.0,34.3,27.2,14.0,0000.0,0011.82,0004.74,0003.75
2022-05-01 14:29:00,,0824.3,5.01,0.00,25.4,24.4,00.0,34.3,27.3,14.0,0000.0,0011.67,0004.67,0003.77
2022-05-01 14:30:00,,0824.3,4.99,0.00,25.4,24.4,00.0,34.3,27.2,14.1,0000.0,0011.38,0004.64,0003.79
2022-05-01 14:31:00,,0824.3,4.99,0.00,25.4,24.4,00.0,34.3,27.2,14.3,0000.0,0011.31,0004.62,0003.82
2022-05-01 14:32:00,,0824.3,5.01,0.00,25.4,24.4,00.0,34.3,27.2,14.0,0000.0,0010.89,0004.64,0003.84
2022-05-01 14:33:00,,0824.2,4.99,0.00,25.4,24.4,00.0,34.3,27.3,13.9,0000.0,0010.73,0004.66,0003.87
2022-05-01 14:34:00,,0824.2,5.00,0.00,25.4,24.4,00.0,34.3,27.3,13.7,0000.0,0010.61,0004.63,0003.88
2022-05-01 14:35:00,,0824.1,5.01,0.00,25.4,24.5,00.0,34.3,27.3,13.7,0000.0,0010.58,0004.64,0003.90
2022-05-01 14:36:00,,0824.2,4.99,0.00,25.4,24.5,00.0,34.3,27.3,13.7,0000.0,0010.53,0004.65,0003.92
2022-05-01 14:37:00,,0824.1,5.00,0.00,25.4,24.5,00.0,34.3,27.3,13.9,0000.0,0010.32,0004.64,0003.93
2022-05-01 14:38:00,,0824.1,5.00,0.00,25.4,24.5,00.0,34.3,27.3,13.9,0000.0,0009.77,0004.68,0003.94
2022-05-01 14:39:00,,0824.1,5.00,0.00,25.4,24.5,00.0,34.4,27.3,13.9,0000.0,0009.52,0004.71,0003.95
2022-05-01 14:40:00,,0824.1,4.99,0.00,25.5,24.5,00.0,34.4,27.3,13.8,0000.0,0009.60,0004.74,0003.96
2022-05-01 14:41:00,,0824.1,5.01,0.00,25.5,24.5,00.0,34.4,27.3,13.8,0000.0,0009.41,0004.73,0003.97
2022-05-01 14:42:00,,0824.1,5.00,0.00,25.5,24.5,00.0,34.4,27.3,13.9,0000.0,0009.29,0004.73,0003.97
2022-05-01 14:43:00,,0824.1,4.99,0.00,25.5,24.5,00.0,34.4,27.3,13.9,0000.0,0008.84,0004.71,0003.96
2022-05-01 14:44:00,,0824.1,5.00,0.00,25.5,24.5,00.0,34.4,27.3,13.8,0000.0,0008.75,0004.70,0003.96
2022-05-01 14:45:00,,0824.0,5.01,0.00,25.5,24.5,00.0,34.4,27.3,13.9,0000.0,0009.37,0004.75,0003.98
2022-05-01 14:46:00,,0824.0,5.01,0.00,25.5,24.5,00.0,34.4,27.3,14.0,0000.0,0009.77,0004.80,0004.01
2022-05-01 14:47:00,,0824.1,4.99,0.00,25.5,24.5,00.0,34.4,27.3,13.9,0000.0,0009.73,0004.81,0004.03
2022-05-01 14:48:00,,0824.0,5.00,0.00,25.5,24.5,00.0,34.4,27.3,13.9,0000.0,0009.59,0004.84,0004.05
2022-05-01 14:49:00,,0824.1,5.01,0.00,25.5,24.6,00.0,34.4,27.3,13.9,0000.0,0009.89,0004.84,0004.07
2022-05-01 14:50:00,,0824.1,5.00,0.00,25.5,24.6,00.0,34.4,27.4,13.9,0000.0,0009.99,0004.85,0004.08
2022-05-01 14:51:00,,0824.1,5.00,0.00,25.5,24.6,00.0,34.4,27.4,13.9,0000.0,0010.05,0004.84,0004.09
2022-05-01 14:52:00,,0824.1,5.01,0.00,25.5,24.6,00.0,34.4,27.4,13.9,0000.0,0010.21,0004.88,0004.11
2022-05-01 14:53:00,,0824.1,5.00,0.00,25.5,24.6,00.0,34.5,27.4,14.0,0000.0,0010.29,0004.91,0004.12
2022-05-01 14:54:00,,0824.0,4.98,0.00,25.6,24.6,00.0,34.5,27.4,13.9,0000.0,0010.26,0004.93,0004.14
2022-05-01 14:55:00,,0824.1,5.01,0.00,25.6,24.6,00.0,34.5,27.4,13.8,0000.0,0010.78,0004.99,0004.16
2022-05-01 14:56:00,,0824.1,5.00,0.00,25.6,24.6,00.0,34.5,27.4,13.9,0000.0,0010.47,0005.02,0004.16
2022-05-01 14:57:00,,0824.1,4.99,0.00,25.6,24.6,00.0,34.5,27.4,13.9,0000.0,0010.28,0005.03,0004.14
2022-05-01 14:58:00,,0824.1,5.00,0.00,25.6,24.6,00.0,34.5,27.5,13.7,0000.0,0010.41,0005.03,0004.13
2022-05-01 14:59:00,,0824.1,5.01,0.00,25.6,24.6,00.0,34.5,27.4,13.7,0000.0,0010.41,0004.96,0004.10
